Weather History for Windsor, ON

Change the Weather History Date:

Sunday, August 17, 2014

  Actual Average Record
Temperature  
Mean Temperature 69 °F -  
Max Temperature 75 °F 75 °F 87 °F (1999)
Min Temperature 62 °F 57 °F 57 °F (2013)
Cooling Degree Days 4    
Growing Degree Days 19 (Base 50)    
Moisture  
Dew Point 63 °F    
Average Humidity 81    
Maximum Humidity 100    
Minimum Humidity 56    
Precipitation  
Precipitation 0.04 in 0.11 in - ()
Sea Level Pressure  
Sea Level Pressure 29.97 in    
Wind  
Wind Speed 5 mph ()    
Max Wind Speed 15 mph    
Max Gust Speed -    
Visibility 12.5 miles    
Events Rain    
Averages and records for this station are not official NWS values.
T = Trace of Precipitation, MM = Missing Value Source: Averaged Metar Reports

Daily Weather History Graph

Daily Weather History Graph

Search for Another Location

Airport:

Trip Planner

Search our weather history database for the weather conditions in past years. The results will help you decide how hot, cold, wet, or windy it might be!

Date:

Astronomy

Aug. 17, 2014 Rise Set
Actual Time 6:41 AM EDT 8:29 PM EDT
Civil Twilight 6:11 AM EDT 8:59 PM EDT
Nautical Twilight 5:34 AM EDT 9:36 PM EDT
Astronomical Twilight 4:55 AM EDT 10:15 PM EDT
Moon 12:05 AM EDT (8/17) 2:35 PM EDT (8/17)
Length of Visible Light 14h 48m
Length of Day
13h 48m
Waning Gibbous, 48% of the Moon is Illuminated
Aug 17
Waning Gibbous
Aug 25
New
Sep 2
First Quarter
Sep 8
Full
Sep 15
Last Quarter

Hourly Weather History & Observations

Time (EDT) Temp. Dew Point Humidity Pressure Visibility Wind Dir Wind Speed Gust Speed Precip Events Conditions
12:00 AM 71.6 °F 64.4 °F 78% 29.90 in 15.0 mi NNW 6.9 mph - N/A   Overcast
12:10 AM - - N/A% - 12.0 mi North 15.0 mph - N/A Rain Light Rain Showers
1:24 AM - - N/A% - 8.0 mi NW 4.6 mph - N/A Rain Light Rain Showers
2:00 AM 69 °F 67 °F 92% 29.92 in 7 mi NNW 3.5 mph - - Rain Light Rain Showers
2:00 AM 68.0 °F 68.0 °F 100% 29.92 in 7.0 mi NW 4.6 mph - N/A Rain Light Rain Showers
2:47 AM - - N/A% - 7.0 mi NNW 3.5 mph - N/A   Overcast
2:55 AM - - N/A% - 7.0 mi NE 4.6 mph - N/A   Overcast
3:00 AM 68.0 °F 64.4 °F 88% 29.93 in 7.0 mi ENE 9.2 mph - N/A   Overcast
4:00 AM 64.4 °F 62.6 °F 94% 29.94 in 12.0 mi ENE 3.5 mph - N/A   Overcast
4:21 AM - - N/A% - 8.0 mi ENE 3.5 mph - N/A Rain Light Rain Showers
4:51 AM - - N/A% - 10.0 mi ENE 5.8 mph - N/A   Overcast
5:00 AM 64.4 °F 62.6 °F 94% 29.95 in 10.0 mi East 4.6 mph - N/A   Overcast
6:00 AM 64.4 °F 62.6 °F 94% 29.96 in 12.0 mi NE 3.5 mph - N/A   Mostly Cloudy
7:00 AM 64.4 °F 62.6 °F 94% 29.97 in 12.0 mi ENE 4.6 mph - N/A   Mostly Cloudy
7:09 AM - - N/A% - 10.0 mi ENE 4.6 mph - N/A Rain Light Rain Showers
7:43 AM - - N/A% - 12.0 mi Calm Calm - N/A   Mostly Cloudy
8:00 AM 65 °F 63 °F 90% 29.99 in 12 mi East 3.5 mph - - Rain Light Rain Showers
8:00 AM 66.2 °F 62.6 °F 88% 29.99 in 12.0 mi East 3.5 mph - N/A   Mostly Cloudy
9:00 AM 68.0 °F 62.6 °F 83% 30.00 in 15.0 mi East 8.1 mph - N/A   Mostly Cloudy
10:00 AM 68.0 °F 62.6 °F 83% 30.02 in 15.0 mi East 8.1 mph - N/A   Overcast
10:14 AM - - N/A% - 15.0 mi East 6.9 mph - N/A   Mostly Cloudy
11:00 AM 68.0 °F 64.4 °F 88% 30.01 in 15.0 mi East 5.8 mph - N/A   Mostly Cloudy
12:00 PM 71.6 °F 64.4 °F 78% 30.01 in 15.0 mi ENE 5.8 mph - N/A   Mostly Cloudy
1:00 PM 73.4 °F 64.4 °F 73% 30.00 in 15.0 mi East 6.9 mph - N/A   Mostly Cloudy
2:00 PM 74 °F 61 °F 56% 29.99 in 15 mi ENE 4.6 mph - -   Mostly Cloudy
2:00 PM 75.2 °F 60.8 °F 61% 29.99 in 15.0 mi ENE 6.9 mph - N/A   Mostly Cloudy
3:00 PM 75.2 °F 60.8 °F 61% 29.99 in 15.0 mi ENE 4.6 mph - N/A   Scattered Clouds
4:00 PM 75.2 °F 60.8 °F 61% 29.98 in 15.0 mi ESE 4.6 mph - N/A   Scattered Clouds
5:00 PM 75.2 °F 60.8 °F 61% 29.97 in 15.0 mi SE 4.6 mph - N/A   Partly Cloudy
6:00 PM 75.2 °F 64.4 °F 69% 29.97 in 15.0 mi SE 8.1 mph - N/A   Partly Cloudy
7:00 PM 73.4 °F 64.4 °F 73% 29.96 in 15.0 mi SSE 8.1 mph - N/A   Partly Cloudy
8:00 PM 69 °F 64 °F 78% 29.96 in 15 mi SE 5.8 mph - -   Scattered Clouds
8:00 PM 69.8 °F 64.4 °F 83% 29.96 in 15.0 mi SE 5.8 mph - N/A   Partly Cloudy
9:00 PM 66.2 °F 62.6 °F 88% 29.96 in 15.0 mi SSE 3.5 mph - N/A   Partly Cloudy
10:00 PM 64.4 °F 62.6 °F 94% 29.99 in 15.0 mi South 2.3 mph - N/A   Partly Cloudy
11:00 PM 62.6 °F 59.0 °F 88% 29.99 in 15.0 mi NNE 8.1 mph - N/A   Scattered Clouds